Home > Weather > Vila Nova de Gaia > Past weeks

Flag for Portugal Past Weather in Vila Nova de Gaia, Portugal — Yesterday and Last 2 Weeks

Now
77 °F

Sunny.


Feels Like: 79 °F
Forecast: 64 / 80 °F
Wind: 8 mph from North

Location: Porto / Pedras Rubras

Current Time: Jul 27, 2016 at 8:16:24 PM

Latest Report: Jul 27, 2016 at 7:30 PM


Visibility: 10 mi

Pressure: 29.98 "Hg

Humidity: 57%

Dew Point: 61 °F

Location of Vila Nova de GaiaLocation

Past Weather in Vila Nova de Gaia — Graph

°F

Vila Nova de Gaia Temperature Yesterday

Maximum temperature yesterday: 77 °F (at 2:00 PM)
Minimum temperature yesterday: 57 °F (at 5:00 AM)
Average temperature yesterday: 67 °F

High & Low Weather Summary for the Past Weeks

 TemperatureHumidityPressure
High93 °F (Jul 15, 2:30 PM)100% (Jul 17, 5:30 AM)30.21 "Hg (Jul 17, 5:30 AM)
Low54 °F (Jul 13, 5:30 AM)16% (Jul 15, 3:00 PM)29.92 "Hg (Jul 18, 5:00 AM)
Average70 °F70%30.05 "Hg
* Reported Jul 12 7:00 PM — Jul 27 7:00 PM, Vila Nova de Gaia, Weather by CustomWeather, © 2016

Note: Actual official high and low records may vary slightly from our data, if they occured in-between our weather recording intervals... More about our weather records

Advertising

Vila Nova de Gaia Weather History for the Previous 24 Hours

Scroll right to see more
 ConditionsComfort  
Time TempWeatherWind HumidityBarometerVisibility
7:00 PM
Wed, Jul 27
79 °FSunny.9 mph51%29.98 "Hg10 mi
6:30 PM79 °FPassing clouds.8 mph54%29.98 "HgN/A
6:00 PM79 °FSunny.8 mph54%29.98 "Hg10 mi
5:30 PM79 °FSunny.7 mph54%29.98 "Hg10 mi
5:00 PM79 °FSunny.9 mph54%29.98 "Hg10 mi
4:30 PM81 °FPassing clouds.8 mph54%30.01 "HgN/A
4:00 PM79 °FPassing clouds.8 mph58%30.01 "HgN/A
3:30 PM79 °FPassing clouds.9 mph58%30.01 "HgN/A
3:00 PM79 °FPassing clouds.10 mph58%30.01 "HgN/A
2:30 PM79 °FSunny.9 mph58%30.04 "Hg10 mi
2:00 PM79 °FSunny.10 mph58%30.04 "Hg10 mi
1:30 PM79 °FSunny.9 mph58%30.04 "Hg10 mi
12:30 PM79 °FPassing clouds.7 mph58%30.04 "HgN/A
12:00 PM79 °FPassing clouds.6 mph61%30.04 "HgN/A
11:30 AM77 °FPassing clouds.6 mph65%30.04 "HgN/A
11:00 AM77 °FPassing clouds.5 mph69%30.04 "HgN/A
10:30 AM73 °FPassing clouds.5 mph78%30.04 "HgN/A
10:00 AM72 °FPassing clouds.6 mph83%30.04 "HgN/A
9:30 AM68 °FClear.5 mph94%30.04 "Hg6 mi
9:00 AM64 °FPassing clouds.3 mph100%30.04 "Hg6 mi
8:30 AM63 °FScattered clouds.5 mph100%30.04 "Hg4 mi
8:00 AM61 °FFog.2 mph100%30.04 "Hg2 mi
7:30 AM59 °FCool.2 mph100%30.04 "Hg1 mi
7:00 AM59 °FFog.5 mph100%30.07 "Hg0 mi
6:30 AM59 °FFog.2 mph100%30.07 "Hg0 mi
6:00 AM59 °FFog.2 mph100%30.04 "Hg1 mi
5:30 AM57 °FFog.No wind100%30.04 "Hg2 mi
5:00 AM59 °FPassing clouds.No wind100%30.04 "Hg4 mi
4:30 AM59 °FFog.No wind100%30.04 "Hg1 mi
4:00 AM61 °FFog.No wind100%30.04 "Hg2 mi
3:30 AM61 °FClear.3 mph100%30.04 "Hg4 mi
3:00 AM63 °FClear.No wind94%30.04 "Hg5 mi
2:30 AM63 °FClear.No wind100%30.04 "Hg10 mi
2:00 AM63 °FClear.6 mph100%30.04 "Hg10 mi
1:30 AM63 °FClear.8 mph100%30.04 "Hg10 mi
1:00 AM63 °FClear.7 mph94%30.04 "Hg10 mi
12:30 AM63 °FClear.9 mph100%30.07 "Hg10 mi
12:00 AM64 °FClear.9 mph94%30.07 "Hg10 mi
11:30 PM
Tue, Jul 26
64 °FClear.10 mph94%30.07 "Hg10 mi
11:00 PM63 °FClear.8 mph94%30.07 "Hg10 mi
10:30 PM63 °FClear.8 mph100%30.04 "Hg10 mi
10:00 PM63 °FPassing clouds.3 mph94%30.04 "HgN/A
9:30 PM63 °FSunny.5 mph94%30.04 "Hg10 mi
9:00 PM64 °FSunny.6 mph88%30.04 "Hg10 mi
8:30 PM64 °FSunny.6 mph88%30.04 "Hg10 mi
8:00 PM68 °FPassing clouds.3 mph78%30.04 "HgN/A
Weather by CustomWeather, © 2016

See weather overviewHow to use our weather pages